Location: Albacete
(38.9833°N, 1.8500°W)
Time: 10:29:47
(UTC+02:00)

ISS - Visible Passes

Search period start: 02 April 2023 00:00
Search period end: 12 April 2023 00:00
Orbit: 413 x 423 km, 51.6° (Epoch: 02 April)

Date Brightness Start Highest point End Pass type
(mag) Time Alt. Az. Time Alt. Az. Time Alt. Az.
02 Apr -2.5 22:10:25 10° WNW 22:13:27 33° SW 22:14:01 30° SSW visible
03 Apr -3.4 21:22:23 10° WNW 21:25:41 61° SW 21:28:28 13° SE visible
04 Apr -0.9 22:13:14 10° WSW 22:14:07 11° SW 22:15:01 10° SW visible
05 Apr -1.4 21:23:54 10° W 21:26:22 19° SW 21:28:49 10° S visible
